Weather Roundup
Issued by NWS Springfield, MO

Home | Current Version | Previous Version | Text Only | Print | Product List | Glossary On
Versions: 1 2 3 4 5 6 7 8 9 10 11 12 13 14 15 16 17 18 19 20 21 22 23 24 25 26 27 28 29 30 31 32 33 34 35 36 37 38 39 40 41 42 43 44 45 46 47 48 49 50
000
NZUS99 KSGF 281359
HRRSGF

HOURLY WEATHER
NATIONAL WEATHER SERVICE SPRINGFIELD MO
900 AM CDT TUE JUL 28 2015

......SGF CWA......

CITY           SKY/WX    TMP DP  RH WIND       PRES   REMARKS
SPRINGFIELD    SUNNY     84  73  69 SW10      29.99R HX  90
JOPLIN         SUNNY     86  72  62 S10       29.97R HX  92
WEST PLAINS    SUNNY     83  73  72 SW6       30.03R
ROLLA          SUNNY     82  75  79 SW9       29.98R
OSAGE BEACH    SUNNY     84  73  70 SW8       29.98R HX  91
BRANSON        SUNNY     84  72  65 S6        30.02R

......SURROUNDING SGF CWA......

CITY           SKY/WX    TMP DP  RH WIND       PRES   REMARKS
CHANUTE        SUNNY     84  72  67 S18       29.92S
PARSONS        SUNNY     84  75  74 SW7       29.94S HX  92
COFFEYVILLE    SUNNY     84  73  69 S15       29.92S HX  90
EMPORIA        SUNNY     83  71  67 S14       29.89R
SILOAM SPRINGS SUNNY     82  70  65 S8        29.99R
HARRISON AR    SUNNY     84  74  71 S3        30.02R HX  91
NEAR YELLVILLE SUNNY     81  73  78 CALM      29.98S

......KANSAS AND MISSOURI......

CITY           SKY/WX    TMP DP  RH WIND       PRES   REMARKS
KANSAS CTY INT MOSUNNY   85  75  72 S10       29.90R HX  93
DOWNTOWN KC    SUNNY     87  74  64 S12       29.89R HX  95
COLUMBIA       SUNNY     82  76  81 S8        29.96R
SEDALIA        SUNNY     86  75  69 SW13      29.97R HX  95
ST JOSEPH      SUNNY     83  76  79 S12G21    29.87R HX  91
ST LOUIS       MOSUNNY   86  75  69 SW5       29.97S HX  95
SPIRIT OF STL  MOSUNNY   83  77  82 CALM      29.95S HX  92
KIRKSVILLE     SUNNY     81  75  82 S8        29.95R
WICHITA        MOSUNNY   84  68  58 S15       29.88S
TOPEKA         SUNNY     84  73  69 SW12      29.87R HX  90
OLATHE         SUNNY     83  73  72 S9G18     29.91R

......TENNESSEE......

CITY           SKY/WX    TMP DP  RH WIND       PRES   REMARKS
MEMPHIS        MOSUNNY   88  75  65 SW6       30.01R HX  97
NASHVILLE      MOSUNNY   86  77  74 VRB5      30.02R HX  97

......ARKANSAS.......

CITY           SKY/WX    TMP DP  RH WIND       PRES   REMARKS
FAYETTEVILLE   SUNNY     82  73  74 CALM      30.01R
FT SMITH       SUNNY     84  74  71 E5        29.96S HX  91
LITTLE ROCK    SUNNY     87  76  69 SW5       29.99R HX  97

......OKLAHOMA.......

CITY           SKY/WX    TMP DP  RH WIND       PRES   REMARKS
TULSA          SUNNY     86  72  62 S10       29.94R HX  92
PONCA CITY     SUNNY     84  70  62 S7        29.90S
MCALESTER      SUNNY     85  72  65 S8        29.97R HX  91
OKLAHOMA CITY  SUNNY     83  70  64 S14       29.94S

......IOWA............

CITY           SKY/WX    TMP DP  RH WIND       PRES   REMARKS
DES MOINES     CLOUDY    76  70  82 NW15G29   29.93R THUNDER
QUAD CITIES    PTSUNNY   77  72  84 SE6       29.95S

......ILLINOIS........

CITY           SKY/WX    TMP DP  RH WIND       PRES   REMARKS
QUINCY         SUNNY     79  73  82 S8        29.94S
CHICAGO        MOSUNNY   81  64  56 SE10      29.98F




USA.gov is the U.S. government's official web portal to all federal, state and local government web resources and services.